カタログに戻る

STARLINK-34184

運用中通信VLEO
NORAD 64024·PAYLOAD·🇺🇸 United States

打ち上げ May 16, 2025 から Vandenberg Space Force Base

Loading…

次のパス (今後24時間)

TLE

最新Source: CelesTrak SupGP

元期: Sep 14, 2026, 21:10 UTC

1 64024C 25102C   26257.88243056 -.00027365  00000+0 -94994-3 0  2573
2 64024  70.0013 355.5820 0003570 275.2600 236.4849 15.29659946    17

AllMySatでSTARLINK-34184をリアルタイム追跡

Download on the App Store